Overview Statistics Trail Chart Weather Telemetry Raw packets
 

This is the latest recevied weather packets stored in our database for station/object KD2FKI. If no packets are shown the sender has not sent any weather packets the latest 10 day(s).

<< 25 26 27 28 29 30 31 >>
Time Temp. Humidity Pressure Rain* Wind** Luminosity Snow
1788021324 32.22° C 38% - 0 mm - - -
1788020722 32.22° C 36% - 0 mm - - -
1788020120 30.56° C 38% - 0 mm - - -
1788019536 30.56° C 40% - 0 mm - - -
1788018934 30.56° C 38% - 0 mm - - -
1788018333 30° C 39% - 0 mm - - -
1788017733 29.44° C 39% - 0 mm - - -
1788017130 27.78° C 42% - 0 mm - - -
1788016529 26.67° C 48% - 0 mm - - -
1788015922 25° C 51% - 0 mm - - -
1788015327 23.89° C 53% - 0 mm - - -
1788014736 23.33° C 54% - 0 mm - - -
1788014134 23.33° C 55% - 0 mm - - -
1788013531 22.78° C 55% - 0 mm - - -
1788012929 22.78° C 56% - 0 mm - - -
1788012330 22.22° C 57% - 0 mm - - -
1788011725 22.22° C 58% - 0 mm - - -
1788011123 21.67° C 59% - 0 mm - - -
1788010520 21.67° C 60% - 0 mm - - -
1788009936 21.11° C 64% - 0 mm - - -
1788009334 21.11° C 69% - 0 mm - - -
1788008732 20.56° C 69% - 0 mm - - -
1788008129 20° C 72% - 0 mm - - -
1788007527 20° C 74% - 0 mm - - -
1788006927 19.44° C 76% - 0 mm - - -

* Rain latest hour (hover to see other rain measurements)
** Current wind speed in m/s (hover to see current wind gust speed)